Regional Weather Roundup
Issued by NWS

Home | Current Version | Previous Version | Graphics & Text | Print | Product List | Glossary On
Versions: 1 2 3 4 5 6 7 8 9 10 11 12 13 14 15 16 17 18 19 20 21 22 23 24 25 26 27 28 29 30 31 32 33 34 35 36 37 38 39 40 41 42 43 44 45 46 47 48 49 50
000
ASUS44 KMEG 191210
RWRTN
TENNESSEE HOURLY STATE WEATHER ROUNDUP
NATIONAL WEATHER SERVICE MEMPHIS TN
600 AM CST SUN FEB 19 2017

TNZ002-004-019-021-049-052-054-088>092-191300-
WEST TENNESSEE

CITY           SKY/WX    TMP DP  RH WIND       PRES   REMARKS
MEMPHIS INTL   CLEAR     48  47  96 S6        30.04R
NWS MEMPHIS      N/A     45 N/A N/A MISG        N/A
JACKSON        PTCLDY    43  43 100 S6        30.04R FOG
UNION CITY     CLOUDY   N/A N/A N/A CALM      30.02R VSB 1/4
PARIS            N/A     39  39 100 CALM      30.03R VSB 1/4
HUNTINGDON     FOG       43  41  93 CALM      30.03R VSB 1/4
$$

TNZ008-025-027-028-033-062-065-066-191300-
NORTH MIDDLE TENNESSEE

CITY           SKY/WX    TMP DP  RH WIND       PRES   REMARKS
NASHVILLE      PTCLDY    46  44  93 S5        30.04S FOG
PORTLAND       CLOUDY    46  45  93 CALM      30.05R FOG
CLARKSVILLE    FOG       41  39  93 E3        30.03R VSB 1/4
SMYRNA         FOG       42  42 100 CALM      30.06R VSB 1/4
COOKEVILLE     CLOUDY    48  48 100 CALM      30.04R FOG
GALLATIN       FOG       43  43 100 CALM      30.08R VSB 0
CROSSVILLE     CLOUDY    48  46  93 W3        30.05R FOG
$$

TNZ061-075-076-078-094-096-097-191300-
SOUTH MIDDLE TENNESSEE

CITY           SKY/WX    TMP DP  RH WIND       PRES   REMARKS
FAYETTEVILLE   FOG       45  45 100 CALM      30.04R VSB 0
TULLAHOMA      CLOUDY    48  48 100 CALM      30.06R
WINCHESTER     CLOUDY    48  48 100 CALM      30.06R VSB 3/4
MCMINNVILLE    CLOUDY    48  48 100 CALM      30.05R VSB 3/4
COLUMBIA       PTCLDY   N/A N/A N/A CALM      30.02S
SHELBYVILLE    MOCLDY    46  46 100 E3        30.06R VSB 1/4
$$

TNZ017-018-042-046-047-191300-
NORTHEAST TENNESSEE

CITY           SKY/WX    TMP DP  RH WIND       PRES   REMARKS
TRI CITIES     CLOUDY    48  46  93 CALM      30.04R FOG
ELIZABETHTON   CLOUDY    48  48 100 W7        30.02R FOG
$$

TNZ012-013-036-069-073-074-191300-
CENTRAL EAST TENNESSEE

CITY           SKY/WX    TMP DP  RH WIND       PRES   REMARKS
KNOXVILLE      CLOUDY    50  47  89 CALM      30.04R FOG
OAK RIDGE      FOG       50  49  96 CALM      30.06R VSB 1/2
GATLINBURG     CLOUDY    48  46  93 CALM      30.05R
MORRISTOWN     CLOUDY    48  48 100 NW3       30.04R FOG
JACKSBORO      CLOUDY    48  48 100 CALM      30.08R FOG
$$

TNZ083-085-099-191300-
SOUTHEAST TENNESSEE

CITY           SKY/WX    TMP DP  RH WIND       PRES   REMARKS
CHATTANOOGA    DRIZZLE   51  50  96 CALM      30.05R FOG
$$

SKY/WX REPORTED AS FAIR MEANS FEW OR NO CLOUDS BELOW
12 THOUSAND FEET.




USA.gov is the U.S. government's official web portal to all federal, state and local government web resources and services.